Date String (YYYY-MM-DD hh:mm:ss) UTC,Instrument flags,absolute air pressure of the measurement (hPa),sample flow rate (lpm),inlet stack bypass flow (lpm),air temperature of the measurement (°C),ambient temperature measured by the external sensor (°C),aerosol sample conditioner tube jacket temperature (°C),OPC LED temperature (°C),internal box temperature (°C),relative humidity of the measurement (%),span deviation,mass concentration of particles derived from Lorenz-Mie calculation of OPC scattering (μg/m³),mass concentration of particles derived from Lorenz-Mie calculation of OPC scattering (μg/m³),mass concentration of particles derived from Lorenz-Mie calculation of OPC scattering (μg/m³)
DateTimeUTC,F1_M11,P_M11,Q1_M11,Q2_M11,T1_M11,T2_M11,T3_M11,T4_M11,T5_M11,U1_M11,ZSPAN_M11,X2_M11,X0_M11,X1_M11
2023-09-06 01:00:00,SystemResetWarning,0834.1,4.99,000.00,028.2,026.8,000.0,036.4,029.9,27.3,0001.8,0005.31,0013.88,0004.75
2023-09-06 01:01:00,SystemResetWarning,0834.1,4.99,000.00,028.2,027.0,000.0,036.4,029.9,27.2,0001.3,0005.35,0014.26,0004.77
2023-09-06 01:02:00,SystemResetWarning,0834.2,5.00,000.00,028.3,027.2,000.0,036.5,030.0,27.1,0001.0,0005.42,0013.30,0004.78
2023-09-06 01:03:00,SystemResetWarning,0834.1,5.00,000.00,028.3,027.3,000.0,036.5,030.1,27.0,0000.9,0005.46,0013.67,0004.80
2023-09-06 01:04:00,SystemResetWarning,0834.1,4.99,000.00,028.3,026.6,000.0,036.5,029.9,27.0,0000.5,0005.54,0014.34,0004.84
2023-09-06 01:05:00,SystemResetWarning,0834.1,5.00,000.00,028.2,024.9,000.0,036.4,029.3,27.2,0000.6,0005.59,0014.25,0004.87
2023-09-06 01:06:00,SystemResetWarning,0834.1,5.01,000.00,028.1,023.9,000.0,036.4,029.1,27.5,0000.5,0005.63,0015.00,0004.89
2023-09-06 01:07:00,SystemResetWarning,0834.1,5.01,000.00,027.9,024.0,000.0,036.3,029.1,27.7,0000.5,0005.67,0015.18,0004.91
2023-09-06 01:08:00,SystemResetWarning,0834.1,5.01,000.00,027.9,024.4,000.0,036.3,029.1,27.8,0000.8,0005.73,0015.26,0004.94
2023-09-06 01:09:00,SystemResetWarning,0834.1,4.99,000.00,027.9,024.9,000.0,036.3,029.2,27.9,0000.8,0005.77,0014.99,0004.98
2023-09-06 01:10:00,SystemResetWarning,0834.2,5.00,000.00,027.9,025.3,000.0,036.3,029.4,27.9,0001.3,0005.82,0014.66,0005.01
2023-09-06 01:11:00,SystemResetWarning,0834.2,5.00,000.00,027.9,025.7,000.0,036.3,029.4,27.7,0001.1,0005.87,0014.51,0005.04
2023-09-06 01:12:00,SystemResetWarning,0834.2,5.00,000.00,027.9,026.1,000.0,036.3,029.5,27.6,0001.5,0005.94,0016.27,0005.07
2023-09-06 01:13:00,SystemResetWarning,0834.4,4.99,000.00,028.0,026.4,000.0,036.3,029.6,27.5,0001.8,0005.98,0016.93,0005.10
2023-09-06 01:14:00,SystemResetWarning,0834.4,5.00,000.00,028.0,026.6,000.0,036.3,029.7,27.4,0002.0,0006.02,0017.13,0005.13
2023-09-06 01:15:00,SystemResetWarning,0834.6,5.00,000.00,028.1,026.8,000.0,036.3,029.8,27.3,0002.3,0006.04,0016.67,0005.14
2023-09-06 01:16:00,SystemResetWarning,0834.3,5.00,000.00,028.1,027.0,000.0,036.4,029.8,27.2,0002.0,0006.06,0017.25,0005.17
2023-09-06 01:17:00,SystemResetWarning,0834.3,5.00,000.00,028.2,027.2,000.0,036.4,029.9,26.9,0002.1,0006.08,0016.67,0005.20
2023-09-06 01:18:00,SystemResetWarning,0834.4,5.00,000.00,028.2,027.3,000.0,036.4,030.0,26.9,0002.3,0006.07,0016.92,0005.22
2023-09-06 01:19:00,SystemResetWarning,0834.3,4.99,000.00,028.3,027.4,000.0,036.5,030.0,26.8,0002.0,0006.07,0017.66,0005.24
2023-09-06 01:20:00,SystemResetWarning,0834.4,5.00,000.00,028.3,026.7,000.0,036.5,029.9,26.9,0001.9,0006.12,0018.15,0005.29
2023-09-06 01:21:00,SystemResetWarning,0834.3,5.00,000.00,028.2,025.2,000.0,036.4,029.5,26.9,0001.7,0006.18,0017.86,0005.33
2023-09-06 01:22:00,SystemResetWarning,0834.3,5.00,000.00,028.1,024.8,000.0,036.4,029.4,27.0,0001.9,0006.22,0017.96,0005.36
2023-09-06 01:23:00,SystemResetWarning,0834.3,5.01,000.00,028.0,025.0,000.0,036.4,029.4,27.1,0001.7,0006.23,0017.29,0005.40
2023-09-06 01:24:00,SystemResetWarning,0834.4,5.01,000.00,028.0,025.3,000.0,036.4,029.4,27.2,0001.5,0006.25,0015.63,0005.44
2023-09-06 01:25:00,SystemResetWarning,0834.4,4.99,000.00,028.0,025.7,000.0,036.4,029.5,27.2,0001.2,0006.26,0016.12,0005.49
2023-09-06 01:26:00,SystemResetWarning,0834.4,4.99,000.00,028.0,026.1,000.0,036.4,029.6,27.2,0001.2,0006.31,0016.36,0005.54
2023-09-06 01:27:00,SystemResetWarning,0834.5,5.00,000.00,028.1,026.4,000.0,036.4,029.7,27.3,0001.5,0006.36,0016.11,0005.59
2023-09-06 01:28:00,SystemResetWarning,0834.5,5.01,000.00,028.1,026.6,000.0,036.4,029.8,27.4,0001.5,0006.45,0017.03,0005.64
2023-09-06 01:29:00,SystemResetWarning,0834.5,5.00,000.00,028.2,026.9,000.0,036.5,029.9,27.4,0001.5,0006.49,0017.22,0005.70
2023-09-06 01:30:00,SystemResetWarning,0834.5,5.00,000.00,028.2,027.1,000.0,036.5,029.9,27.1,0001.7,0006.58,0016.99,0005.78
2023-09-06 01:31:00,SystemResetWarning,0834.6,5.00,000.00,028.3,027.2,000.0,036.5,030.0,26.9,0001.8,0006.64,0016.79,0005.84
2023-09-06 01:32:00,SystemResetWarning,0834.9,4.99,000.00,028.3,027.3,000.0,036.5,030.1,26.7,0001.9,0006.69,0018.10,0005.89
2023-09-06 01:33:00,SystemResetWarning,0834.7,4.99,000.00,028.3,026.3,000.0,036.5,029.8,26.8,0001.9,0006.75,0019.23,0005.97
2023-09-06 01:34:00,SystemResetWarning,0834.5,5.00,000.00,028.2,025.0,000.0,036.5,029.4,27.1,0001.8,0006.84,0018.59,0006.06
2023-09-06 01:35:00,SystemResetWarning,0834.5,5.01,000.00,028.1,024.8,000.0,036.4,029.4,27.2,0001.7,0006.93,0018.46,0006.14
2023-09-06 01:36:00,SystemResetWarning,0834.5,5.01,000.00,028.0,025.0,000.0,036.4,029.3,27.3,0001.3,0007.01,0017.72,0006.22
2023-09-06 01:37:00,SystemResetWarning,0834.6,4.99,000.00,028.0,025.4,000.0,036.4,029.4,27.3,0001.4,0007.10,0018.41,0006.31
2023-09-06 01:38:00,SystemResetWarning,0834.9,5.00,000.00,028.0,025.8,000.0,036.4,029.6,27.4,0001.2,0007.21,0018.47,0006.43
2023-09-06 01:39:00,SystemResetWarning,0835.1,5.00,000.00,028.1,026.1,000.0,036.4,029.7,27.3,0001.4,0007.33,0017.83,0006.54
2023-09-06 01:40:00,SystemResetWarning,0835.1,5.00,000.00,028.1,026.4,000.0,036.4,029.7,27.1,0001.5,0007.45,0017.17,0006.67
2023-09-06 01:41:00,SystemResetWarning,0834.6,5.01,000.00,028.1,026.7,000.0,036.5,029.8,26.9,0001.5,0007.56,0017.12,0006.78
2023-09-06 01:42:00,SystemResetWarning,0834.6,5.00,000.00,028.2,026.9,000.0,036.5,029.9,27.0,0001.6,0007.65,0016.98,0006.88
2023-09-06 01:43:00,SystemResetWarning,0834.7,5.00,000.00,028.2,027.1,000.0,036.5,029.9,26.9,0001.7,0007.78,0016.25,0007.02
2023-09-06 01:44:00,SystemResetWarning,0834.9,5.00,000.00,028.3,027.3,000.0,036.5,030.0,26.8,0001.6,0007.93,0016.25,0007.15
2023-09-06 01:45:00,SystemResetWarning,0835.0,5.00,000.00,028.3,026.7,000.0,036.5,029.9,26.7,0001.9,0008.00,0015.91,0007.24
2023-09-06 01:46:00,SystemResetWarning,0834.6,5.00,000.00,028.2,025.2,000.0,036.5,029.4,26.8,0001.8,0008.12,0016.45,0007.33
2023-09-06 01:47:00,SystemResetWarning,0834.6,5.00,000.00,028.1,024.8,000.0,036.4,029.4,26.8,0002.0,0008.27,0017.29,0007.45
2023-09-06 01:48:00,SystemResetWarning,0834.7,5.01,000.00,028.0,024.9,000.0,036.4,029.3,26.7,0002.0,0008.35,0016.60,0007.55
2023-09-06 01:49:00,SystemResetWarning,0834.8,5.01,000.00,028.0,025.3,000.0,036.4,029.4,27.0,0002.1,0008.43,0016.99,0007.65
2023-09-06 01:50:00,SystemResetWarning,0835.1,5.00,000.00,028.0,025.7,000.0,036.4,029.5,27.0,0001.9,0008.51,0017.18,0007.75
2023-09-06 01:51:00,SystemResetWarning,0835.2,5.00,000.00,028.0,026.0,000.0,036.4,029.6,26.8,0001.8,0008.60,0017.63,0007.83
2023-09-06 01:52:00,SystemResetWarning,0834.9,5.00,000.00,028.1,026.3,000.0,036.4,029.7,26.9,0002.0,0008.70,0018.35,0007.92
2023-09-06 01:53:00,SystemResetWarning,0834.7,4.99,000.00,028.1,026.6,000.0,036.5,029.8,26.9,0002.1,0008.83,0019.19,0008.04
2023-09-06 01:54:00,SystemResetWarning,0834.7,5.00,000.00,028.2,026.8,000.0,036.5,029.8,26.8,0002.0,0009.02,0019.79,0008.15
2023-09-06 01:55:00,SystemResetWarning,0834.8,5.00,000.00,028.2,027.0,000.0,036.5,029.9,26.7,0001.9,0009.11,0019.41,0008.24
2023-09-06 01:56:00,SystemResetWarning,0835.1,5.00,000.00,028.2,027.2,000.0,036.5,030.0,26.5,0001.8,0009.24,0019.80,0008.35
2023-09-06 01:57:00,SystemResetWarning,0835.3,5.00,000.00,028.3,027.3,000.0,036.6,030.0,26.4,0001.9,0009.36,0019.34,0008.51
2023-09-06 01:58:00,SystemResetWarning,0835.4,4.98,000.00,028.3,027.1,000.0,036.6,030.0,26.4,0001.9,0009.50,0019.08,0008.64
2023-09-06 01:59:00,SystemResetWarning,0835.3,4.99,000.00,028.3,025.5,000.0,036.5,029.6,26.3,0001.9,0009.65,0019.17,0008.78
